Location: Buglose
(43.7838°N, 0.9918°W)
Time: 02:33:15
(UTC+00:00)

Daily predictions for brighter satellites

Satellite Brightness Start Highest point End
(mag) Time Altitude Azimuth Time Altitude Azimuth Time Altitude Azimuth
Cosmos 1980 Rocket 3.8 03:23:20 30° E 03:23:20 30° E 03:27:17 10° NE
NOSS 3-1 (A) 4.2 03:23:44 67° NE 03:23:44 67° NE 03:32:32 10° SE
ATLAS 3B R/B 3.8 03:27:51 38° N 03:30:01 47° NE 03:37:25 10° ESE
Cosmos 1697 Rocket 4.3 03:42:44 27° NNE 03:42:44 27° NNE 03:45:15 10° NNE
ATLAS 2AS CENTAUR R/B 3.0 03:47:22 60° N 03:47:22 60° N 03:53:08 10° NE
Lacrosse 4 Rocket 3.8 03:49:00 21° E 03:49:00 21° E 03:50:52 10° ESE
Cosmos 1818 4.4 03:51:21 49° E 03:51:21 49° E 03:55:52 10° NE
USA 59 Rocket 2.6 03:53:36 13° NE 03:53:47 13° NE 03:55:55 10° ENE
Cosmos 2263 Rocket 2.8 04:00:01 48° NNE 04:00:58 53° ENE 04:06:27 10° SE
Cosmos 2266 Rocket 4.2 04:02:41 10° S 04:09:02 71° E 04:15:25 10° NNE
Cosmos 2227 Rocket 3.9 04:13:54 21° S 04:13:54 21° S 04:15:45 10° S
Cosmos 2285 Rocket 3.9 04:11:34 79° SW 04:11:34 79° SW 04:17:42 10° SSE
BREEZE-M DEB (TANK) 4.4 04:14:04 21° NE 04:14:04 21° NE 04:16:05 10° ENE
SL-16 R/B 4.5 04:17:31 10° SSE 04:21:51 23° E 04:26:10 10° NE
Gbstr 26 Del rocket 3.9 04:22:25 43° SSE 04:22:49 44° SE 04:27:41 10° ENE
Cosmos 1655 Rocket 4.4 04:22:18 10° S 04:28:35 65° E 04:34:52 10° NNE
Cosmos 1484 Rocket 3.9 04:26:03 10° NNE 04:29:21 37° E 04:30:41 26° SE
IRAS Rocket 4.1 04:29:55 10° NNE 04:35:27 85° WNW 04:40:09 15° SSW
DELTA 2 R/B (1) 3.8 04:35:55 51° SSW 04:36:45 57° S 04:42:11 10° ESE
Cosmos 2219 3.0 04:35:44 57° NW 04:36:49 72° WSW 04:42:26 10° SSE
S3M 3.8 04:30:39 10° N 04:36:54 77° W 04:43:03 10° S
BREEZE-M DEB (TANK) 3.7 04:39:16 24° ESE 04:39:16 24° ESE 04:40:50 10° E
Cosmos 1417 Rocket 4.4 04:34:35 10° NNW 04:40:37 60° W 04:46:36 10° S
H-2A R/B 2.5 04:39:35 10° N 04:43:09 40° NNW 04:43:09 40° NNW
BREEZE-M DEB (TANK) 2.8 04:45:30 60° ENE 04:45:30 60° ENE 04:50:41 10° E
Meteor 1-24 Rocket 3.5 04:44:52 10° SSW 04:50:20 68° WNW 04:55:42 10° N
SL-8 R/B 3.5 04:49:43 60° WSW 04:50:34 89° NNW 04:55:20 10° ENE
ARGOS 3.1 04:50:09 10° NNE 04:55:36 87° E 05:01:02 10° SSW
Thor Agena Rocket 3.4 04:51:58 10° N 04:57:11 74° WNW 05:02:17 10° SSW
Meteor 2-20 4.4 04:53:56 10° NNW 04:59:57 59° W 05:05:54 10° S
Cosmos 1844 Rocket 4.1 04:55:22 10° N 05:00:31 35° NE 05:05:37 10° ESE
Meteor 2-20 Rocket 4.2 04:54:57 10° N 05:00:53 81° W 05:06:36 10° S
Cosmos 2322 Rocket 4.2 04:56:32 10° SSE 05:01:21 29° ESE 05:06:09 10° NE
Cosmos 1980 Rocket 2.6 05:05:10 36° W 05:06:13 39° WNW 05:11:28 10° NNE
Sich 1 Rocket 4.4 05:02:06 10° N 05:06:29 52° ENE 05:10:53 10° SSE
IRS-1D 4.0 05:05:31 10° N 05:09:55 33° WNW 05:09:55 33° WNW
Cosmos 2369 3.8 05:07:06 24° SW 05:10:17 51° WNW 05:15:47 10° NNE
USA 281 3.2 05:04:57 10° S 05:11:24 62° WSW 05:17:56 10° NNW
Cosmos 1378 Rocket 3.5 05:09:39 10° S 05:14:03 88° W 05:18:30 10° N
Atlas Centaur 2 3.7 05:14:53 10° SSW 05:15:44 11° SSW 05:16:34 10° S
Cosmos 1674 Rocket 3.6 05:11:48 10° S 05:16:05 78° E 05:20:24 10° N
ATLAS CENTAUR R/B 3.1 05:18:24 15° NNW 05:18:24 15° NNW 05:19:55 10° N
FengYun 1-2 T 4.2 05:12:58 10° NNE 05:18:38 86° WNW 05:24:17 10° SSW
Meteor 2-5 Rocket 4.1 05:13:25 10° SW 05:18:50 41° WNW 05:24:11 10° N
Cosmos 371 Rocket 3.3 05:16:35 16° NNW 05:20:23 60° WSW 05:25:08 10° S
ARIANE 6 FM1 Upper Stage 2.8 05:16:15 10° SSW 05:20:26 76° SE 05:24:42 10° NE
USA 267 4.2 05:14:45 10° E 05:20:42 39° NNE 05:26:09 12° NW
ATLAS 3B R/B 3.2 05:15:09 18° NW 05:20:57 51° WSW 05:28:12 10° S
Okean 2 Rocket 3.1 05:17:40 10° N 05:22:10 82° E 05:26:37 10° S
Cosmos 1992 Rocket 4.0 05:17:42 10° SSW 05:22:51 61° WNW 05:28:03 10° NNE
COSMO-SKYMED 1 2.5 05:18:39 10° SSE 05:22:59 83° WSW 05:27:21 10° NNW
Cosmos 1697 Rocket 4.2 05:24:29 16° NW 05:24:29 16° NW 05:27:55 10° N
Cosmos 1939 Rocket 3.5 05:21:36 10° N 05:24:26 29° NW 05:24:26 29° NW
Lacrosse 4 Rocket 2.1 05:24:51 29° W 05:25:24 30° WSW 05:28:59 10° S
Cosmos 1486 Rocket 4.4 05:20:13 10° NNW 05:25:24 65° ENE 05:30:34 10° SSE
NOAA 12 4.1 05:22:07 10° NNE 05:27:29 86° ESE 05:32:48 10° SSW
NOSS 2-1 (D) 3.7 05:29:46 16° NNW 05:32:55 79° NE 05:38:17 10° SE
Cosmos 2098 Rocket 2.9 05:29:55 10° N 05:33:38 62° E 05:36:46 10° SSE
Cosmos 1818 4.5 05:32:02 22° W 05:34:22 29° NW 05:39:09 10° NNE
Cosmos 2227 4.2 05:30:01 10° NNW 05:35:42 86° WSW 05:41:25 10° SSE
SJ-11-01 4.2 05:33:04 10° N 05:37:44 81° WNW 05:42:23 10° SSW
ATLAS 2AS CENTAUR R/B 3.9 05:34:50 18° WNW 05:38:08 24° NNW 05:43:38 10° NNE
Cosmos 2315 Rocket 4.5 05:32:51 10° NNW 05:38:36 37° W 05:44:18 10° SSW
USA 59 Rocket 0.1 05:39:52 13° NW 05:43:24 88° WSW 05:48:57 10° SE
Cosmos 2263 Rocket 3.3 05:41:46 17° WNW 05:44:28 23° W 05:48:46 10° SSW
Cosmos 1455 Rocket 4.4 05:40:46 10° N 05:44:54 41° ENE 05:48:59 10° SSE
Cosmos 2237 4.2 05:40:13 10° SW 05:45:50 63° WNW 05:51:30 10° NNE
Nadezhda 1 Rocket 4.4 05:39:43 10° N 05:45:51 64° E 05:51:51 10° SSE
CBERS-1 4.3 05:43:01 10° N 05:47:50 42° WNW 05:52:38 10° SW
SL-08 R/B 4.4 05:43:42 10° SSW 05:49:48 78° W 05:55:59 10° N
Cosmos 2360 Rocket 2.8 05:47:40 10° S 05:53:11 62° ESE 05:58:44 10° NNE
Cosmos 1437 Rocket 3.3 05:50:05 10° SW 05:53:16 30° WNW 05:56:31 10° N
Cosmos 2151 Rocket 4.1 05:51:08 10° NNW 05:55:15 38° W 05:59:22 10° SSW
TIMED 4.4 05:52:47 10° NNW 05:57:05 73° WSW 06:01:22 10° SSE
Cosmos 1484 Rocket 4.2 06:00:36 10° NNW 06:02:32 14° WNW 06:04:28 10° W
Cosmos 1606 2.4 06:00:10 10° N 06:03:34 82° E 06:06:55 10° S
Okean 1 Rocket 3.2 05:59:20 10° NNW 06:03:41 52° W 06:08:00 10° S
Cosmos 2084 Rocket 3.8 05:59:43 10° WSW 06:03:51 44° NW 06:07:55 10° NNE
BREEZE-M DEB (TANK) 3.5 05:59:20 12° WNW 06:04:10 36° N 06:06:24 10° ENE
Cosmos 1354 Rocket 4.4 05:59:22 10° NNW 06:04:39 67° ENE 06:09:53 10° SSE
SL-16 R/B 2.3 05:59:57 10° SW 06:05:30 55° WNW 06:11:05 10° NNE
Gbstr 26 Del rocket 3.7 06:04:50 10° W 06:09:24 51° NNW 06:15:02 10° ENE
NOSS 2-1 (E) 4.0 06:07:12 10° NW 06:11:11 53° SW 06:16:40 10° SSE
TRACE 4.3 06:09:14 10° SSE 06:12:28 88° ENE 06:15:45 10° NNW
CZ-2D R/B 3.0 06:09:14 10° N 06:12:44 64° WNW 06:16:13 10° SSW
EXPRESS MD2 2.4 06:09:39 10° WSW 06:13:04 62° NNW 06:15:24 10° ENE
ADEOS Rocket 3.5 06:09:31 10° NNE 06:16:47 83° ESE 06:23:15 10° SSW
Geosat FO 4.4 06:14:22 10° SSE 06:17:47 83° WSW 06:21:04 10° NNW
CZ-2D R/B 3.3 06:14:25 10° NNE 06:18:22 84° WNW 06:22:22 10° SSW
SJ-12 4.0 06:17:06 10° N 06:20:56 49° WNW 06:24:43 10° SSW
DELTA 2 R/B (1) 4.4 06:17:31 10° W 06:22:44 42° SSW 06:27:56 10° SE
